Regional Weather Roundup
Issued by NWS State College, PA

Home | Current Version | Previous Version | Text Only | Print | Product List | Glossary On
Versions: 1 2 3 4 5 6 7 8 9 10 11 12 13 14 15 16 17 18 19 20 21 22 23 24 25 26 27 28 29 30 31 32 33 34 35 36 37 38 39 40 41 42 43 44 45 46 47 48 49 50
000
ASUS41 KCTP 260110
RWRCTP

REGIONAL WEATHER ROUNDUP
NATIONAL WEATHER SERVICE STATE COLLEGE PA
900 PM EDT SUN JUN 25 2017

Note: "fair" indicates few or no clouds below 12,000 feet with no
significant weather and/or obstructions to visibility.

* = STATION THAT DOES NOT REPORT PRECIPITATION /E.G. RAIN...SNOW...ETC/
    THUNDER OR FOG.

PAZ002>004-007>009-013>016-020>023-029>032-260200-
WESTERN PENNSYLVANIA

CITY           SKY/WX    TMP DP  RH WIND       PRES   REMARKS
ERIE           PTCLDY    66  49  54 W9        30.03S
MEADVILLE      CLEAR     61  47  59 NW3       30.06R
FRANKLIN*      CLEAR     61  43  51 W3        30.06S
NEW CASTLE     FAIR      64  48  56 W5        30.07R
BEAVER COUNTY  NOT AVBL
BUTLER*        MOCLDY    64  45  48 W5        30.07R
PITTSBURGH INT PTCLDY    68  47  46 NW8       30.06R
PITTSBURGH     MOCLDY    68  43  40 NW8       30.06R
INDIANA*       MOCLDY    63  54  72 SW5       30.08R
LATROBE        PTCLDY    64  55  72 SW7       30.07R
WASHINGTON CO* PTCLDY    64  48  55 W5        30.09R
$$

PAZ004>006-010>012-017>019-024>028-033>037-041-042-045-046-049>053-260200-
CENTRAL PENNSYLVANIA

CITY           SKY/WX    TMP DP  RH WIND       PRES   REMARKS
BRADFORD       CLEAR     52  51  97 CALM      30.05S
DUBOIS         PTCLDY    62  46  55 NW7       30.05R
CLEARFIELD     CLOUDY    65  50  58 W7        30.04R
JOHNSTOWN      PTCLDY    60  48  64 SW5       30.08R
ALTOONA        LGT RAIN  62  54  74 W5        30.07R
STATE COLLEGE  PTCLDY    66  48  52 W6        30.03R
WILLIAMSPORT   PTCLDY    72  48  42 W7        29.97R
SELINSGROVE    PTCLDY    69  53  56 CALM      30.00R
FT INDIANTOWN  CLEAR     72  49  44 W8        30.00R
CAPITAL CITY   CLEAR     74  45  35 W3        30.00R
HARRISBURG     PTCLDY    76  51  41 W10       29.99R
YORK           CLEAR     70  48  45 CALM      30.02R
$$

PAZ038>040-043-044-047-048-054-055-060>062-067>071-260200-
EASTERN PENNSYLVANIA

CITY           SKY/WX    TMP DP  RH WIND       PRES   REMARKS
SCRANTON       PTCLDY    72  48  42 SW7       29.98R
MOUNT POCONO   CLEAR     63  51  65 W6        30.01R
ALLENTOWN      CLEAR     70  52  52 W6        29.97R
QUAKERTOWN*    MOCLDY    73  57  56 W3        29.99R
READING        CLEAR     74  53  48 W7        29.97R
LANCASTER      CLEAR     73  49  42 W10       30.00R
COATESVILLE    PTCLDY    72  54  53 W7        30.02R
POTTSTOWN      CLOUDY    74  52  46 W5        30.00R
BLUE BELL      MOCLDY    73  55  53 W3        29.99R
DOYLESTOWN     PTCLDY    74  55  51 W3        29.96R
WILLOW GROVE   NOT AVBL
NORTH PHILA    PTCLDY    78  55  44 W9        29.97R
PHILADELPHIA   MOCLDY    81  52  36 W10       29.97R
$$




USA.gov is the U.S. government's official web portal to all federal, state and local government web resources and services.